This is the latest recevied weather packets stored in our database for station/object N6WDO. If no packets are shown the sender has not sent any weather packets the latest 1 day(s).
| Time | Temp. | Humidity | Pressure | Rain* | Wind** | Luminosity | Snow |
|---|---|---|---|---|---|---|---|
| 1778033054 | 13.33° C | 76% | 1016.7 hPa | 0 mm | 0 m/s | 22 W/m² | - |
| 1778032750 | 13.89° C | 76% | 1016.7 hPa | 0 mm | 0 m/s | 25 W/m² | - |
| 1778032448 | 13.89° C | 76% | 1016.6 hPa | 0 mm | 0 m/s | 32 W/m² | - |
| 1778032145 | 13.89° C | 75% | 1016.8 hPa | 0 mm | 0 m/s | 36 W/m² | - |
| 1778031842 | 13.89° C | 74% | 1016.6 hPa | 0 mm | 0 m/s | 39 W/m² | - |
| 1778031538 | 13.89° C | 73% | 1016.6 hPa | 0 mm | 0 m/s | 41 W/m² | - |
| 1778031236 | 13.89° C | 73% | 1016.6 hPa | 0 mm | 0.45 m/s, 59° | 38 W/m² | - |
| 1778030932 | 13.89° C | 72% | 1016.6 hPa | 0 mm | 0 m/s | 37 W/m² | - |
| 1778030629 | 13.89° C | 71% | 1016.9 hPa | 0 mm | 0.45 m/s, 332° | 40 W/m² | - |
| 1778030326 | 14.44° C | 73% | 1016.6 hPa | 0 mm | 0 m/s | 40 W/m² | - |
| 1778030023 | 14.44° C | 72% | 1016.7 hPa | 0 mm | 0.45 m/s, 345° | 34 W/m² | - |
| 1778029720 | 14.44° C | 72% | 1016.8 hPa | 0 mm | 0.45 m/s, 45° | 31 W/m² | - |
| 1778029418 | 14.44° C | 75% | 1016.7 hPa | 0 mm | 0 m/s | 34 W/m² | - |
| 1778029115 | 14.44° C | 73% | 1016.8 hPa | 0 mm | 0.45 m/s, 202° | 40 W/m² | - |
| 1778028812 | 14.44° C | 73% | 1016.7 hPa | 0 mm | 0.45 m/s, 210° | 45 W/m² | - |
| 1778028507 | 14.44° C | 73% | 1016.6 hPa | 0 mm | 0.45 m/s, 179° | 50 W/m² | - |
| 1778028206 | 15° C | 72% | 1016.7 hPa | 0 mm | 0 m/s | 61 W/m² | - |
| 1778027901 | 15° C | 70% | 1016.7 hPa | 0 mm | 0 m/s | 68 W/m² | - |
| 1778027598 | 15° C | 71% | 1016.6 hPa | 0 mm | 0 m/s | 83 W/m² | - |
| 1778027294 | 15° C | 70% | 1016.6 hPa | 0 mm | 0 m/s | 100 W/m² | - |
| 1778026991 | 15° C | 70% | 1016.6 hPa | 0 mm | 0.45 m/s, 65° | 97 W/m² | - |
| 1778026686 | 15° C | 69% | 1016.6 hPa | 0 mm | 0 m/s | 88 W/m² | - |
| 1778026384 | 15° C | 71% | 1016.6 hPa | 0 mm | 0 m/s | 98 W/m² | - |
| 1778026081 | 15° C | 70% | 1016.7 hPa | 0 mm | 0 m/s | 122 W/m² | - |
| 1778025778 | 15° C | 73% | 1016.8 hPa | 0 mm | 0.45 m/s, 67° | 128 W/m² | - |
* Rain latest hour (hover to see other rain measurements)
** Current wind speed in m/s (hover to see current wind gust speed)